GW4755 Weather Reports


time (UTC)temp
C
wind
direction
speed
KPH
gust
KPH
rain 1hr
cm
rain 24hr
cm
rain mn
cm
humidity
%
barometer
mb
20260506134503 11 0 0.0 0.0 0.00 0.00 0.00 92 1007.1
20260506133004 11 0 0.0 0.0 0.00 0.00 0.00 92 1006.8
20260506131505 11 6 0.0 0.0 0.00 0.00 0.00 92 1006.8
20260506130005 11 8 0.0 0.0 0.00 0.00 0.00 92 1006.4
20260506124503 10 358 0.0 0.0 0.00 0.00 0.00 92 1006.4
20260506121503 11 358 0.0 0.0 0.00 0.00 0.00 92 1006.4
20260506120005 11 358 0.0 0.0 0.00 0.00 0.00 92 1006.4
20260506112503 11 358 0.0 0.0 0.00 0.00 0.00 92 1006.1
20260506111005 11 358 0.0 0.0 0.00 0.00 0.00 92 1006.1
20260506105503 10 358 0.0 0.0 0.00 0.00 0.00 92 1005.8
20260506103504 10 8 0.0 0.0 0.00 0.00 0.00 92 1005.8
20260506101503 10 344 0.0 0.0 0.00 0.00 0.00 91 1005.8
20260506091503 10 3 0.0 0.0 0.00 0.00 0.00 92 1005.8
20260506090004 10 325 0.0 0.0 0.00 0.00 0.00 92 1005.8
20260506083003 10 348 0.0 0.0 0.00 0.00 0.00 92 1005.8
20260506081503 10 19 0.0 0.0 0.00 0.00 0.00 91 1005.4
20260506073003 10 358 0.0 0.0 0.00 0.00 0.00 91 1005.4
20260506071504 10 4 0.0 0.0 0.00 0.00 0.00 91 1005.1
20260506061503 10 358 0.0 0.0 0.00 0.00 0.00 91 1005.1
20260506044504 11 355 0.0 0.0 0.00 0.00 0.00 88 1004.1
20260506043004 11 358 0.0 0.0 0.00 0.00 0.00 88 1004.1
20260506041504 11 2 0.0 0.0 0.00 0.00 0.00 88 1003.7
20260506034503 11 342 0.0 0.0 0.00 0.00 0.00 86 1003.4
20260506033004 12 314 0.0 0.0 0.00 0.00 0.00 86 1003.0
20260506031504 12 324 0.0 0.0 0.00 0.00 0.00 86 1002.7
20260506030004 12 344 0.0 0.0 0.00 0.00 0.00 85 1002.7
20260506025002 12 298 0.0 0.0 0.00 0.00 0.00 85 1002.4
20260506023504 12 326 0.0 0.0 0.00 0.00 0.00 84 1002.4
20260506022003 13 349 0.0 0.0 0.00 0.00 0.00 84 1002.4
20260506020503 13 2 0.0 0.0 0.00 0.00 0.00 83 1002.0
20260506015003 13 8 0.0 0.0 0.00 0.00 0.00 81 1002.0
20260506013503 13 14 0.0 0.0 0.00 0.00 0.00 81 1002.0
20260506005004 14 20 0.0 0.0 0.00 0.00 0.00 82 1002.0
20260506003503 14 17 0.0 0.0 0.00 0.00 0.00 81 1002.0
20260506002004 14 54 3.2 3.2 0.00 0.00 0.00 80 1002.0
20260505235503 14 52 3.2 3.2 0.00 0.00 0.25 80 1002.0
20260505234503 14 14 0.0 3.2 0.00 0.00 0.25 79 1002.0
20260505233003 14 65 3.2 3.2 0.00 0.00 0.25 77 1002.0
20260505230004 15 17 4.8 4.8 0.00 0.00 0.25 79 1002.0
20260505224502 15 36 3.2 3.2 0.00 0.00 0.25 79 1002.0
20260505223004 15 356 0.0 6.4 0.00 0.00 0.25 79 1002.0
20260505221503 16 23 3.2 4.8 0.00 0.00 0.25 77 1002.0
20260505220004 16 102 0.0 6.4 0.00 0.00 0.25 79 1002.0
20260505214503 15 12 0.0 0.0 0.00 0.00 0.25 81 1002.0
20260505211503 15 62 3.2 3.2 0.00 0.00 0.25 79 1002.4
20260505210004 15 40 0.0 6.4 0.00 0.00 0.25 78 1002.4
20260505205003 15 52 4.8 4.8 0.00 0.00 0.25 80 1002.4
20260505203503 15 34 0.0 0.0 0.00 0.00 0.25 79 1002.4
20260505195004 14 349 0.0 0.0 0.00 0.00 0.25 82 1002.7
20260505193503 15 84 0.0 0.0 0.00 0.00 0.25 81 1002.7
20260505192004 13 66 3.2 4.8 0.00 0.00 0.25 82 1002.7
20260505185004 13 306 0.0 0.0 0.00 0.00 0.25 88 1002.7
20260505183503 13 356 0.0 0.0 0.00 0.00 0.25 88 1002.7
20260505182004 13 25 0.0 0.0 0.00 0.00 0.25 88 1002.7
20260505180503 13 358 0.0 0.0 0.00 0.00 0.25 88 1002.4
20260505175004 12 355 0.0 0.0 0.00 0.00 0.25 92 1002.4
20260505173505 12 354 0.0 0.0 0.00 0.00 0.25 93 1002.4
20260505172003 12 338 0.0 0.0 0.00 0.00 0.25 93 1002.0
20260505170504 12 334 0.0 0.0 0.00 0.00 0.25 94 1002.4
20260505165004 12 0 0.0 0.0 0.00 0.00 0.25 94 1002.4
20260505163504 11 359 0.0 0.0 0.00 0.00 0.25 94 1002.0
20260505162004 11 10 0.0 0.0 0.00 0.00 0.25 94 1002.0
20260505160505 11 55 0.0 0.0 0.00 0.00 0.25 94 1002.0
20260505151003 10 353 0.0 0.0 0.00 0.00 0.25 94 1001.7